Home   Weather   Palermo   Past weeks

Flag for Italy Past Weather in Palermo, Italy — Yesterday and Last 2 Weeks

Now
64 °F

Scattered clouds.


Feels Like: 64 °F
Forecast: 54 / 61 °F
Wind: 8 mph from Northeast

Location: Palermo / Punta Raisi

Current Time: Apr 28, 2017 at 8:27:49 pm

Latest Report: Apr 28, 2017 at 7:50 pm


Visibility: 6 mi

Pressure: 29.86 "Hg

Humidity: 83%

Dew Point: 59 °F

Location of PalermoLocation

Past Weather in Palermo — Graph

°F

Palermo Temperature Yesterday

Maximum temperature yesterday: 82 °F (at 11:50 am)
Minimum temperature yesterday: 66 °F (at 2:50 am)
Average temperature yesterday: 74 °F

High & Low Weather Summary for the Past Weeks

 TemperatureHumidityPressure
High84 °F (Apr 26, 2:20 pm)88% (Apr 14, 12:20 am)30.33 "Hg (Apr 14, 12:20 am)
Low48 °F (Apr 23, 8:20 am)14% (Apr 28, 4:50 am)29.83 "Hg (Apr 18, 5:50 pm)
Average63 °F62%30.03 "Hg
* Reported Apr 13 7:20 pm — Apr 28 7:20 pm, Palermo, Weather by CustomWeather, © 2017

Note: Actual official high and low records may vary slightly from our data, if they occured in-between our weather recording intervals... More about our weather records

Advertising

Palermo Weather History for the Previous 24 Hours

Scroll right to see more
 ConditionsComfort  
Time TempWeatherWind HumidityBarometerVisibility
7:20 pm
Fri, Apr 28
64 °FScattered clouds.10 mph83%29.86 "Hg5 mi
6:50 pm64 °FScattered clouds.8 mph78%29.86 "Hg6 mi
6:20 pm64 °FScattered clouds.10 mph83%29.86 "Hg6 mi
5:50 pm64 °FScattered clouds.9 mph83%29.86 "Hg6 mi
5:20 pm66 °FScattered clouds.12 mph78%29.89 "Hg6 mi
4:50 pm66 °FPassing clouds.13 mph78%29.89 "Hg6 mi
4:20 pm66 °FPassing clouds.16 mph83%29.89 "HgN/A
3:50 pm66 °FPassing clouds.17 mph83%29.86 "HgN/A
3:20 pm68 °FPassing clouds.14 mph69%29.86 "HgN/A
2:50 pm72 °FPassing clouds.10 mph57%29.89 "Hg4 mi
2:20 pm75 °FSunny.13 mph41%29.86 "Hg10 mi
1:50 pm75 °FSunny.13 mph34%29.86 "Hg10 mi
1:20 pm73 °FClear.7 mph41%29.89 "Hg4 mi
12:50 pm73 °FSunny.1 mph44%29.89 "Hg10 mi
12:20 pm72 °FPassing clouds.8 mph61%29.89 "HgN/A
11:50 am68 °FPassing clouds.6 mph64%29.92 "HgN/A
11:20 am70 °FPassing clouds.5 mph60%29.92 "HgN/A
10:50 am68 °FScattered clouds.5 mph69%29.92 "HgN/A
10:20 am70 °FScattered clouds.3 mph64%29.92 "HgN/A
9:20 am72 °FPassing clouds.1 mph44%29.89 "HgN/A
8:50 am68 °FPassing clouds.5 mph69%29.92 "HgN/A
8:20 am68 °FScattered clouds.5 mph73%29.92 "Hg6 mi
7:50 am66 °FPassing clouds.6 mph78%29.92 "Hg6 mi
7:20 am66 °FSunny.8 mph73%29.92 "Hg10 mi
6:50 am66 °FPassing clouds.12 mph73%29.89 "HgN/A
6:20 am68 °FPassing clouds.10 mph56%29.92 "HgN/A
5:50 am66 °FClear.10 mph73%29.92 "Hg10 mi
5:20 am68 °FClear.16 mph69%29.89 "Hg10 mi
4:50 am81 °FPassing clouds.14 mph14%29.83 "HgN/A
4:20 am79 °FClear.24 mph15%29.83 "Hg10 mi
3:20 am77 °FClear.24 mph18%29.83 "Hg10 mi
2:50 am73 °FClear.24 mph29%29.83 "Hg10 mi
2:20 am75 °FClear.17 mph31%29.86 "Hg10 mi
1:50 am70 °FClear.2 mph53%29.86 "Hg10 mi
12:50 am72 °FClear.2 mph44%29.86 "Hg10 mi
12:20 am73 °FPassing clouds.10 mph47%29.86 "HgN/A
11:50 pm
Thu, Apr 27
75 °FClear.3 mph31%29.86 "Hg10 mi
11:20 pm77 °FPassing clouds.13 mph24%29.86 "HgN/A
10:50 pm70 °FPassing clouds.17 mph50%29.92 "HgN/A
10:20 pm72 °FClear.18 mph44%29.89 "Hg10 mi
9:50 pm72 °FClear.10 mph44%29.89 "Hg10 mi
8:50 pm70 °FClear.2 mph60%29.86 "Hg6 mi
8:20 pm70 °FClear.5 mph64%29.86 "Hg6 mi
Weather by CustomWeather, © 2017

See weather overviewHow to use our weather pages